User: anonymous   Login
Location: Unspecified
(0.0000°N, 0.0000°E)
Time: 05:32:09
(UTC+00:00)
Language:

COSMOS 2488 - Orbit

View from above orbital plane
View from above orbital plane
View from above satellite
View from above satellite

Ground track
Ground track

The orbit data is extracted from the following two-line orbital elements,

1 39483U 13076A   17177.83092489 +.00000010 +00000-0 +00000-0 0  9991
2 39483 082.4858 051.1589 0020902 039.9491 320.3121 12.42864875158958
Epoch (UTC): 26 June 2017 19:56:31
Eccentricity: 0.0020902
inclination: 82.4858°
perigee height: 1478 km
apogee height: 1511 km
right ascension of ascending node: 51.1589°
argument of perigee: 39.9491°
revolutions per day: 12.42864875
mean anomaly at epoch: 320.3121°
orbit number at epoch: 15895

The dashed part of the orbit path shows where the satellite is in the earth's shadow,  

DLR